�������l�o���
Date,Time,MP-1(��Sv/h),MP-2(��Sv/h),MP-3(��Sv/h),MP-4(��Sv/h),MP-5(��Sv/h),MP-6(��Sv/h),MP-7(��Sv/h),MP-8(��Sv/h),����,����(m/s),���J
2018/06/11,00:00,0.850,1.217,0.858,1.554,1.088,0.467,0.823,0.788,�k,2.0,�L
2018/06/11,00:10,0.847,1.219,0.855,1.557,1.085,0.467,0.823,0.788,�k,2.0,�L
2018/06/11,00:20,0.848,1.216,0.858,1.554,1.086,0.468,0.823,0.787,�k,2.5,�L
2018/06/11,00:30,0.848,1.217,0.858,1.555,1.087,0.466,0.824,0.788,�k�k��,2.6,�L
2018/06/11,00:40,0.847,1.217,0.858,1.555,1.087,0.467,0.821,0.787,�k,2.3,�L
2018/06/11,00:50,0.848,1.217,0.854,1.554,1.086,0.466,0.824,0.788,�k�k��,2.3,�L
2018/06/11,01:00,0.849,1.218,0.857,1.554,1.087,0.466,0.823,0.787,�k�k��,2.3,�L
2018/06/11,01:10,0.847,1.218,0.856,1.554,1.087,0.467,0.823,0.788,�k,2.0,�L
2018/06/11,01:20,0.847,1.218,0.857,1.553,1.087,0.470,0.823,0.788,�k,2.3,�L
2018/06/11,01:30,0.846,1.217,0.854,1.555,1.082,0.467,0.820,0.786,�k�k��,2.8,�L
2018/06/11,01:40,0.844,1.211,0.854,1.545,1.084,0.467,0.820,0.785,�k,2.6,�L
2018/06/11,01:50,0.845,1.206,0.851,1.539,1.076,0.467,0.817,0.783,�k�k��,3.7,�L
2018/06/11,02:00,0.842,1.206,0.851,1.537,1.075,0.467,0.817,0.784,�k�k��,3.4,�L
2018/06/11,02:10,0.844,1.204,0.853,1.538,1.076,0.466,0.818,0.785,�k�k��,3.6,�L
2018/06/11,02:20,0.844,1.207,0.853,1.540,1.077,0.464,0.820,0.783,�k�k��,3.7,�L
2018/06/11,02:30,0.844,1.207,0.855,1.541,1.078,0.465,0.820,0.783,�k�k��,4.3,�L
2018/06/11,02:40,0.844,1.209,0.853,1.543,1.078,0.466,0.820,0.783,�k,4.0,�L
2018/06/11,02:50,0.844,1.211,0.855,1.541,1.082,0.465,0.821,0.784,�k,4.0,�L
2018/06/11,03:00,0.845,1.209,0.853,1.541,1.078,0.466,0.821,0.785,�k,3.7,�L
2018/06/11,03:10,0.846,1.213,0.854,1.545,1.080,0.468,0.821,0.785,�k�k��,2.5,�L
2018/06/11,03:20,0.843,1.210,0.852,1.545,1.081,0.467,0.818,0.785,�k,3.6,�L
2018/06/11,03:30,0.846,1.213,0.850,1.546,1.081,0.466,0.821,0.784,�k,3.5,�L
2018/06/11,03:40,0.843,1.213,0.852,1.543,1.084,0.466,0.820,0.785,�k,3.2,�L
2018/06/11,03:50,0.845,1.213,0.854,1.545,1.080,0.467,0.821,0.785,�k�k��,3.5,�L
2018/06/11,04:00,0.844,1.212,0.852,1.546,1.083,0.467,0.821,0.785,�k�k��,4.1,�L
2018/06/11,04:10,0.846,1.216,0.852,1.547,1.084,0.466,0.820,0.786,�k�k��,2.6,�L
2018/06/11,04:20,0.844,1.213,0.850,1.545,1.081,0.466,0.820,0.786,�k,3.3,�L
2018/06/11,04:30,0.845,1.213,0.851,1.544,1.081,0.466,0.821,0.787,�k,4.3,�L
2018/06/11,04:40,0.845,1.208,0.852,1.543,1.080,0.466,0.820,0.786,�k�k��,4.0,�L
2018/06/11,04:50,0.845,1.210,0.851,1.541,1.077,0.467,0.818,0.784,�k�k��,4.6,�L
2018/06/11,05:00,0.843,1.209,0.849,1.540,1.078,0.465,0.818,0.784,�k�k��,4.7,�L
2018/06/11,05:10,0.840,1.206,0.848,1.536,1.076,0.465,0.817,0.782,�k,4.7,�L
2018/06/11,05:20,0.841,1.206,0.848,1.536,1.075,0.463,0.816,0.781,�k�k��,4.7,�L
2018/06/11,05:30,0.840,1.202,0.850,1.531,1.073,0.464,0.815,0.782,�k,4.7,�L
2018/06/11,05:40,0.840,1.201,0.849,1.530,1.072,0.465,0.817,0.781,�k�k��,4.5,�L
2018/06/11,05:50,0.840,1.199,0.846,1.529,1.071,0.466,0.816,0.782,�k,4.6,�L
2018/06/11,06:00,0.835,1.198,0.847,1.527,1.071,0.464,0.815,0.781,�k,4.4,�L
2018/06/11,06:10,0.834,1.192,0.843,1.523,1.069,0.464,0.814,0.780,�k,4.2,�L
2018/06/11,06:20,0.833,1.190,0.844,1.523,1.067,0.462,0.813,0.781,�k,4.2,�L
2018/06/11,06:30,0.833,1.190,0.845,1.522,1.065,0.462,0.814,0.779,�k,3.2,�L
2018/06/11,06:40,0.834,1.189,0.845,1.523,1.064,0.461,0.815,0.776,�k,3.7,�L
2018/06/11,06:50,0.829,1.187,0.843,1.519,1.062,0.462,0.813,0.778,�k,2.9,�L
2018/06/11,07:00,0.830,1.182,0.842,1.514,1.059,0.462,0.813,0.775,�k,3.5,�L
2018/06/11,07:10,0.832,1.185,0.841,1.515,1.060,0.461,0.811,0.775,�k,3.3,�L
2018/06/11,07:20,0.830,1.181,0.843,1.510,1.057,0.459,0.811,0.773,�k�k��,4.0,�L
2018/06/11,07:30,0.829,1.183,0.842,1.511,1.058,0.461,0.810,0.775,�k�k��,4.5,�L
2018/06/11,07:40,0.832,1.179,0.836,1.512,1.056,0.461,0.812,0.773,�k�k��,4.4,�L
2018/06/11,07:50,0.831,1.181,0.837,1.509,1.056,0.460,0.809,0.774,�k,4.1,�L
2018/06/11,08:00,0.830,1.178,0.836,1.511,1.054,0.459,0.809,0.774,�k,4.1,�L
2018/06/11,08:10,0.831,1.176,0.835,1.506,1.050,0.459,0.811,0.776,�k,4.9,�L
2018/06/11,08:20,0.829,1.174,0.831,1.508,1.051,0.461,0.809,0.775,�k,4.8,�L
2018/06/11,08:30,0.828,1.175,0.834,1.505,1.048,0.461,0.810,0.774,�k,4.7,�L
2018/06/11,08:40,0.827,1.177,0.836,1.506,1.049,0.458,0.809,0.774,�k,4.6,�L
2018/06/11,08:50,0.828,1.176,0.833,1.506,1.049,0.459,0.809,0.773,�k,4.6,�L
2018/06/11,09:00,0.828,1.173,0.833,1.505,1.047,0.458,0.808,0.773,�k,5.6,�L
2018/06/11,09:10,0.827,1.171,0.831,1.502,1.046,0.458,0.808,0.773,�k,5.6,�L
2018/06/11,09:20,0.828,1.171,0.832,1.500,1.044,0.458,0.807,0.771,�k�k��,2.0,�L
2018/06/11,09:30,0.825,1.164,0.829,1.496,1.039,0.458,0.805,0.769,�k�k��,9.3,�L
2018/06/11,09:40,0.820,1.161,0.827,1.492,1.037,0.457,0.805,0.770,�k��,6.4,�L
2018/06/11,09:50,0.821,1.161,0.825,1.492,1.035,0.456,0.802,0.769,�k�k��,2.0,�L
2018/06/11,10:00,0.822,1.162,0.826,1.489,1.034,0.455,0.803,0.769,�k�k��,3.2,�L
2018/06/11,10:10,0.821,1.162,0.827,1.492,1.032,0.456,0.805,0.769,�k�k��,4.1,�L
2018/06/11,10:20,0.817,1.159,0.824,1.485,1.027,0.456,0.801,0.765,�k�k��,2.6,�L
2018/06/11,10:30,0.815,1.150,0.822,1.479,1.022,0.454,0.800,0.766,�k��,3.5,�L
2018/06/11,10:40,0.813,1.151,0.816,1.474,1.020,0.454,0.801,0.767,���k��,3.1,�L
2018/06/11,10:50,0.817,1.156,0.817,1.481,1.023,0.456,0.800,0.767,�k,7.8,�L
2018/06/11,11:00,0.823,1.162,0.822,1.483,1.025,0.456,0.802,0.769,�k,7.6,�L
2018/06/11,11:10,0.824,1.165,0.823,1.491,1.023,0.456,0.802,0.770,�k,8.1,�L
2018/06/11,11:20,0.824,1.171,0.825,1.491,1.025,0.458,0.803,0.767,�k,6.8,�L
2018/06/11,11:30,0.824,1.170,0.824,1.487,1.024,0.457,0.803,0.772,�k�k��,7.9,�L
2018/06/11,11:40,0.827,1.168,0.824,1.491,1.026,0.457,0.803,0.770,�k�k��,7.2,�L
2018/06/11,11:50,0.822,1.168,0.824,1.490,1.024,0.459,0.804,0.771,�k,7.5,�L
2018/06/11,12:00,0.823,1.170,0.824,1.490,1.025,0.457,0.805,0.773,�k,7.1,�L
2018/06/11,12:10,0.826,1.167,0.826,1.490,1.026,0.457,0.803,0.769,�k,7.6,�L
2018/06/11,12:20,0.824,1.167,0.825,1.487,1.020,0.456,0.802,0.767,�k,7.3,�L
2018/06/11,12:30,0.822,1.166,0.824,1.485,1.020,0.458,0.803,0.770,�k,8.3,�L
2018/06/11,12:40,0.821,1.162,0.824,1.483,1.020,0.456,0.804,0.770,�k,8.7,�L
2018/06/11,12:50,0.824,1.164,0.826,1.485,1.021,0.458,0.802,0.770,�k,8.7,�L
2018/06/11,13:00,0.823,1.165,0.824,1.483,1.019,0.457,0.802,0.767,�k,8.3,�L
2018/06/11,13:10,0.822,1.164,0.825,1.486,1.018,0.457,0.802,0.767,�k,8.3,�L
2018/06/11,13:20,0.822,1.162,0.824,1.483,1.018,0.455,0.803,0.767,�k,7.5,�L
2018/06/11,13:30,0.822,1.161,0.823,1.483,1.018,0.455,0.803,0.768,�k,8.4,�L
2018/06/11,13:40,0.822,1.162,0.823,1.481,1.019,0.456,0.804,0.768,�k�k��,8.9,�L
2018/06/11,13:50,0.822,1.161,0.824,1.480,1.017,0.458,0.803,0.770,�k�k��,10.2,�L
2018/06/11,14:00,0.821,1.162,0.823,1.481,1.018,0.456,0.801,0.771,�k�k��,9.8,�L
2018/06/11,14:10,0.819,1.159,0.823,1.481,1.018,0.456,0.805,0.771,�k,9.6,�L
2018/06/11,14:20,0.820,1.163,0.825,1.481,1.016,0.455,0.804,0.769,�k�k��,9.6,�L
2018/06/11,14:30,0.820,1.158,0.825,1.477,1.012,0.455,0.801,0.770,�k�k��,9.9,�L
2018/06/11,14:40,0.817,1.155,0.819,1.476,1.009,0.453,0.801,0.767,�k�k��,9.5,�L
2018/06/11,14:50,0.817,1.156,0.820,1.472,1.008,0.455,0.801,0.768,�k,8.6,�L
2018/06/11,15:00,0.812,1.151,0.818,1.471,1.006,0.454,0.799,0.767,�k�k��,9.3,�L
2018/06/11,15:10,0.814,1.152,0.817,1.469,1.003,0.454,0.799,0.768,�k,9.4,�L
2018/06/11,15:20,0.816,1.152,0.818,1.470,1.004,0.455,0.797,0.768,�k�k��,10.0,�L
2018/06/11,15:30,0.816,1.157,0.819,1.473,1.005,0.455,0.800,0.769,�k�k��,9.9,�L
2018/06/11,15:40,0.815,1.155,0.818,1.473,1.005,0.456,0.798,0.768,�k,9.3,�L
2018/06/11,15:50,0.814,1.158,0.818,1.469,1.002,0.455,0.798,0.767,�k�k��,9.2,�L
2018/06/11,16:00,0.816,1.164,0.818,1.470,1.001,0.455,0.798,0.769,�k�k��,9.2,�L
2018/06/11,16:10,0.812,1.160,0.816,1.470,0.998,0.453,0.798,0.765,�k�k��,9.3,�L
2018/06/11,16:20,0.815,1.159,0.817,1.467,1.000,0.454,0.796,0.767,�k�k��,9.3,�L
2018/06/11,16:30,0.815,1.151,0.815,1.466,0.999,0.454,0.797,0.766,�k,8.3,�L
2018/06/11,16:40,0.815,1.154,0.816,1.468,1.000,0.456,0.797,0.765,�k,8.0,�L
2018/06/11,16:50,0.815,1.151,0.816,1.466,0.999,0.452,0.797,0.765,�k�k��,8.9,�L
2018/06/11,17:00,0.813,1.147,0.814,1.460,0.994,0.454,0.794,0.767,�k�k��,9.3,�L
2018/06/11,17:10,0.816,1.151,0.817,1.465,0.996,0.454,0.796,0.766,�k,8.8,�L
2018/06/11,17:20,0.816,1.154,0.814,1.468,0.998,0.453,0.798,0.767,�k�k��,9.8,�L
2018/06/11,17:30,0.817,1.153,0.815,1.469,0.997,0.456,0.798,0.766,�k�k��,10.2,�L
2018/06/11,17:40,0.818,1.154,0.815,1.470,0.999,0.456,0.797,0.766,�k�k��,8.5,�L
2018/06/11,17:50,0.818,1.157,0.818,1.472,0.999,0.456,0.799,0.763,�k�k��,9.3,�L
2018/06/11,18:00,0.815,1.151,0.813,1.466,0.994,0.456,0.798,0.765,�k�k��,8.2,�L
2018/06/11,18:10,0.814,1.148,0.812,1.461,0.993,0.456,0.796,0.764,�k�k��,10.8,�L
2018/06/11,18:20,0.811,1.147,0.809,1.455,0.989,0.455,0.794,0.764,�k,8.5,�L
2018/06/11,18:30,0.811,1.147,0.808,1.458,0.989,0.453,0.793,0.765,�k�k��,9.7,�L
2018/06/11,18:40,0.811,1.146,0.810,1.459,0.988,0.457,0.795,0.763,�k�k��,10.2,�L
2018/06/11,18:50,0.811,1.143,0.804,1.452,0.982,0.453,0.792,0.762,�k,9.3,�L
2018/06/11,19:00,0.812,1.144,0.803,1.452,0.980,0.454,0.792,0.761,�k�k��,10.5,�L
2018/06/11,19:10,0.809,1.138,0.798,1.449,0.980,0.455,0.792,0.762,�k�k��,10.2,�L
2018/06/11,19:20,0.807,1.140,0.792,1.450,0.978,0.453,0.793,0.761,�k,9.3,�L
2018/06/11,19:30,0.808,1.138,0.789,1.448,0.977,0.453,0.792,0.760,�k�k��,10.5,�L
2018/06/11,19:40,0.809,1.142,0.787,1.450,0.975,0.453,0.791,0.762,�k,10.6,�L
2018/06/11,19:50,0.811,1.142,0.786,1.451,0.974,0.453,0.791,0.763,�k�k��,11.0,�L
2018/06/11,20:00,0.810,1.142,0.785,1.449,0.972,0.452,0.792,0.762,�k�k��,11.6,�L
2018/06/11,20:10,0.810,1.144,0.786,1.449,0.972,0.455,0.792,0.761,�k�k��,10.0,�L
2018/06/11,20:20,0.809,1.144,0.785,1.449,0.974,0.454,0.793,0.763,�k�k��,11.7,�L
2018/06/11,20:30,0.810,1.146,0.785,1.450,0.974,0.455,0.792,0.764,�k�k��,11.6,�L
2018/06/11,20:40,0.811,1.146,0.786,1.449,0.970,0.455,0.792,0.763,�k�k��,11.3,�L
2018/06/11,20:50,0.811,1.146,0.787,1.452,0.971,0.455,0.794,0.764,�k�k��,11.1,�L
2018/06/11,21:00,0.812,1.146,0.787,1.454,0.972,0.455,0.794,0.764,�k�k��,11.0,�L
2018/06/11,21:10,0.812,1.151,0.788,1.456,0.975,0.455,0.794,0.766,�k,10.5,�L
2018/06/11,21:20,0.816,1.153,0.792,1.460,0.975,0.454,0.795,0.767,�k�k��,11.6,�L
2018/06/11,21:30,0.816,1.156,0.794,1.462,0.976,0.454,0.797,0.765,�k�k��,10.7,�L
2018/06/11,21:40,0.815,1.155,0.798,1.465,0.978,0.455,0.796,0.766,�k�k��,12.0,�L
2018/06/11,21:50,0.817,1.158,0.799,1.468,0.977,0.456,0.797,0.767,�k�k��,11.0,�L
2018/06/11,22:00,0.817,1.157,0.801,1.469,0.978,0.456,0.797,0.768,�k,10.0,�L
2018/06/11,22:10,0.818,1.159,0.803,1.468,0.982,0.455,0.798,0.767,�k,11.0,�L
2018/06/11,22:20,0.819,1.159,0.804,1.467,0.979,0.455,0.797,0.769,�k,10.7,�L
2018/06/11,22:30,0.816,1.159,0.804,1.471,0.982,0.456,0.797,0.769,�k�k��,9.2,�L
2018/06/11,22:40,0.817,1.159,0.803,1.468,0.982,0.457,0.798,0.768,�k�k��,9.8,�L
2018/06/11,22:50,0.819,1.158,0.806,1.470,0.983,0.458,0.798,0.768,�k�k��,10.3,�L
2018/06/11,23:00,0.819,1.162,0.805,1.473,0.982,0.455,0.799,0.766,�k�k��,11.4,�L
2018/06/11,23:10,0.820,1.161,0.808,1.470,0.985,0.458,0.798,0.767,�k�k��,11.1,�L
2018/06/11,23:20,0.821,1.166,0.805,1.474,0.985,0.458,0.799,0.766,�k�k��,11.9,�L
2018/06/11,23:30,0.819,1.165,0.808,1.477,0.987,0.457,0.799,0.768,�k�k��,10.8,�L
2018/06/11,23:40,0.822,1.164,0.811,1.478,0.988,0.457,0.799,0.768,�k,10.3,�L
2018/06/11,23:50,0.821,1.167,0.812,1.479,0.990,0.458,0.799,0.770,�k,10.3,�L
